Home > Weather > Newman > Past weeks

Flag for Australia Past Weather in Newman, Western Australia, Australia — Yesterday and Last 2 Weeks

Now
76 °F

Mild.


Feels Like: 77 °F
Forecast: 57 / 84 °F
Wind: 6 mph from Southeast

Location: Newman Aerodrome

Current Time: May 29, 2016 at 7:38:35 PM

Latest Report: May 29, 2016 at 6:00 PM


Visibility: N/A

Pressure: 29.89 "Hg (28.07 "Hg at 546m altitude)

Humidity: 27%

Dew Point: 40 °F

Location of NewmanLocation

Past Weather in Newman — Graph

°F

Newman Temperature Yesterday

Maximum temperature yesterday: 83 °F (at 2:00 PM)
Minimum temperature yesterday: 59 °F (at 6:00 AM)
Average temperature yesterday: 71 °F

High & Low Weather Summary for the Past Weeks

 TemperatureHumidityPressure
High89 °F (May 25, 3:00 PM)80% (May 26, 8:00 AM)30.13 "Hg (May 26, 8:00 AM)
Low51 °F (May 23, 5:00 AM)15% (May 17, 12:00 PM)29.77 "Hg (May 21, 3:00 PM)
Average71 °F41%29.97 "Hg
* Reported May 14 6:00 PM — May 29 6:00 PM, Newman, Weather by CustomWeather, © 2016

Note: Actual official high and low records may vary slightly from our data, if they occured in-between our weather recording intervals... More about our weather records

Advertising

Newman Weather History for the Previous 24 Hours

Scroll right to see more
 ConditionsComfort  
Time TempWeatherWind HumidityBarometerVisibility
6:00 PM
Sun, May 29
76 °FMild.6 mph27%29.89 "HgN/A
5:00 PM80 °FPleasantly warm.3 mph24%29.87 "HgN/A
3:00 PM83 °FPleasantly warm.6 mph24%29.86 "HgN/A
2:00 PM83 °FPleasantly warm.7 mph24%29.87 "HgN/A
12:00 PM79 °FPleasantly warm.2 mph32%29.93 "HgN/A
11:00 AM76 °FMild.6 mph34%29.96 "HgN/A
9:00 AM68 °FMild.8 mph39%29.98 "HgN/A
8:00 AM62 °FMild.6 mph48%29.98 "HgN/A
6:00 AM57 °FCool.5 mph63%29.95 "HgN/A
5:00 AM59 °FCool.6 mph60%29.93 "HgN/A
3:00 AM64 °FMild.7 mph56%29.91 "HgN/A
2:00 AM63 °FMild.6 mph61%29.92 "HgN/A
12:00 AM65 °FMild.No wind58%29.92 "HgN/A
11:00 PM
Sat, May 28
67 °FMild.1 mph54%29.94 "HgN/A
9:00 PM69 °FPassing clouds.3 mph50%29.95 "HgN/A
8:00 PM73 °FMild.5 mph45%29.95 "HgN/A
Weather by CustomWeather, © 2016

See weather overviewHow to use our weather pages